Location: Bacharowice
(49.9333°N, 19.5833°E)
Time: 23:07:41
(UTC+00:00)

Cosmos 1500 - Pass Details

Date: 11 May 2021
Orbit: 497 x 518 km, 82.5° (Epoch: 21 June)

Event Time Altitude Azimuth Distance (km) Brightness Sun altitude
Rises 19:47:28 0° 347° (NNW) 2,617 8.0 -12.3°
Reaches altitude 10° 19:49:37 10° 345° (NNW) 1,724 6.9 -12.5°
Maximum altitude 19:53:21 67° 263° (W) 550 3.4 -12.9°
Enters shadow 19:56:24 15° 182° (S) 1,438 5.0 -13.2°
